map of UEL home
UEL - Airport
Location
City:  Quelimane, Zambézia, Mozambique
Name:Quelimane Airport
ICAO:FQQL
IATA:UEL

Details
Type:Airport (Aerodrome, Airfield)
Use:Public/Civil
Latitude:17°51'20"S (-17.855499)
Longitude:36°52'09"E (36.869106)
Datum:WGS 1984
Elevation:36 ft (11 m)
Variation:10.54°W (WMM2015v2 magnetic declination)
-0.07° annual change
Runways:2
Longest:5905 × 148 ft (1800 × 45 m), paved

Time
Time Zone:UTC+2
Local Time:

Weather
METAR:FQQL 041400Z 14011KT 9999 SCT020 31/24 Q1008
TAF:FQQL 041000Z 0412/0512 16012KT 9999 FEW020 TX32/0413Z TN25/0503Z PROB30
TEMPO 0412/0418 5000 -TSRA SCT010 BKN015 FEW025CB
BECMG 0418/0420 10007KT SCT020
BECMG 0500/0502 04008KT

Related Locations
Nearby:
Farthest:ITO: 11657 mi / 18760 km
Hilo [Hilo Intl], Hawaii, HI, US

Find:

   beyond  
but within

Other Information
Maps:
NOTAMs:
Links:
Sources:

  
  • flag of Mozambique
  

Sectional Chart

Flight Planning
at skyvector.com

Satellite Image

Google Maps Satellite view

 

Copyright © 2004-2019 Karl L. Swartz. All rights reserved.
The Great Circle Mapper name and logo are trademarks of the Great Circle Mapper.
All other trademarks mentioned herein belong to their respective owners.
Please see credits for attibutions and further copyright information.

  Follow gcmap on Facebook Follow gcmap on Twitter GCmap on LinkedIn

hCard Microformat

Geo Microformat